Powrót do katalogu

STARLINK-30071

AktywnyŁącznośćVLEO
NORAD 56708·PAYLOAD·🇺🇸 United States

Wystrzelony May 19, 2023 z Cape Canaveral Space Force Station

Loading…

Następne Przeloty (najbliższe 24 godziny)

TLE

ŚwieżeSource: CelesTrak SupGP

Epoka: Sep 14, 2026, 21:46 UTC

1 56708C 23067W   26257.90743056  .00001000  00000+0  36237-4 0  2572
2 56708  43.0003 286.0608 0001768 262.4482 188.1634 15.27570794    17

Śledź STARLINK-30071 w czasie rzeczywistym z AllMySat

Download on the App Store